Weather History for K20U - January, 2013

Change the Weather History Date:

Thursday, January 3, 2013

  Actual Average (KGDV) Record (KGDV)
Temperature  
Mean Temperature 19 °F -  
Max Temperature 28 °F 23 °F 51 °F (2012)
Min Temperature 10 °F 6 °F -16 °F (1998)
Degree Days  
Heating Degree Days 46    
Moisture  
Dew Point 10 °F    
Average Humidity 69    
Maximum Humidity 93    
Minimum Humidity 47    
Precipitation  
Precipitation 0.00 in - - ()
Sea Level Pressure  
Sea Level Pressure 30.11 in    
Wind  
Wind Speed 14 mph (WSW)    
Max Wind Speed 22 mph    
Max Gust Speed 28 mph    
Visibility 10 miles    
Events      
Averages and records for this station are not official NWS values.
T = Trace of Precipitation, MM = Missing Value Source: NWS Daily Summary

Daily Weather History Graph

Daily Weather History Graph

Search for Another Location

Airport or City:

Trip Planner

Search our weather history database for the weather conditions in past years. The results will help you decide how hot, cold, wet, or windy it might be!

Date:

Astronomy

Jan. 03, 2013 Rise Set
Actual Time 7:41 AM MST 4:20 PM MST
Civil Twilight 7:06 AM MST 4:55 PM MST
Nautical Twilight 6:27 AM MST 5:33 PM MST
Astronomical Twilight 5:50 AM MST 6:10 PM MST
Moon 11:26 PM MST (1/3) 10:28 AM MST (1/3)
Length of Visible Light 9h 48m
Length of Day
8h 38m
Waning Gibbous, 65% of the Moon is Illuminated
Jan 3
Waning Gibbous
Jan 4
Last Quarter
Jan 11
New
Jan 18
First Quarter
Jan 26
Full

Hourly Weather History & Observations

Time (MST) Temp. Windchill Dew Point Humidity Pressure Visibility Wind Dir Wind Speed Gust Speed Precip Events Conditions
12:15 AM 17.6 °F 5.7 °F 15.8 °F 93% 30.23 in 10.0 mi WNW 10.4 mph - N/A   Overcast
12:35 AM 17.6 °F 4.3 °F 15.8 °F 93% 30.22 in 10.0 mi WNW 12.7 mph - N/A   Overcast
12:55 AM 17.6 °F - 15.8 °F 93% 30.23 in 10.0 mi North - - N/A   Overcast
1:15 AM 17.6 °F - 15.8 °F 93% 30.23 in 10.0 mi North - - N/A   Overcast
1:35 AM 17.6 °F 5.0 °F 15.8 °F 93% 30.23 in 10.0 mi WNW 11.5 mph - N/A   Overcast
1:55 AM 17.6 °F 3.7 °F 15.8 °F 93% 30.23 in 10.0 mi WNW 13.8 mph - N/A   Overcast
2:15 AM 17.6 °F 5.0 °F 15.8 °F 93% 30.25 in 10.0 mi WNW 11.5 mph - N/A   Overcast
2:35 AM 17.6 °F 7.3 °F 15.8 °F 93% 30.24 in 10.0 mi West 8.1 mph - N/A   Overcast
2:55 AM 17.6 °F 6.4 °F 15.8 °F 93% 30.23 in 10.0 mi West 9.2 mph - N/A   Overcast
3:15 AM 15.8 °F 4.2 °F 14.0 °F 93% 30.23 in 10.0 mi WSW 9.2 mph - N/A   Mostly Cloudy
3:35 AM 14.0 °F 2.0 °F 12.2 °F 93% 30.22 in 10.0 mi WSW 9.2 mph - N/A   Clear
3:55 AM 14.0 °F 0.5 °F 10.4 °F 86% 30.20 in 10.0 mi WSW 11.5 mph - N/A   Clear
4:15 AM 10.4 °F -4.8 °F 8.6 °F 92% 30.20 in 10.0 mi WSW 12.7 mph - N/A   Clear
4:35 AM 12.2 °F -2.5 °F 8.6 °F 85% 30.19 in 10.0 mi WSW 12.7 mph - N/A   Clear
4:55 AM 10.4 °F -2.4 °F 8.6 °F 92% 30.20 in 10.0 mi WSW 9.2 mph - N/A   Clear
5:15 AM 10.4 °F -4.8 °F 8.6 °F 92% 30.18 in 10.0 mi WSW 12.7 mph - N/A   Clear
5:35 AM 12.2 °F -1.0 °F 8.6 °F 85% 30.18 in 10.0 mi SW 10.4 mph - N/A   Clear
5:55 AM 14.0 °F 2.9 °F 8.6 °F 79% 30.17 in 10.0 mi WSW 8.1 mph - N/A   Clear
6:15 AM 14.0 °F -0.8 °F 8.6 °F 79% 30.17 in 10.0 mi WSW 13.8 mph - N/A   Clear
6:35 AM 14.0 °F -2.0 °F 8.6 °F 79% 30.15 in 10.0 mi WSW 16.1 mph - N/A   Clear
6:55 AM 14.0 °F -1.4 °F 8.6 °F 79% 30.15 in 10.0 mi WSW 15.0 mph - N/A   Clear
7:15 AM 14.0 °F -2.0 °F 8.6 °F 79% 30.15 in 10.0 mi WSW 16.1 mph - N/A   Clear
7:35 AM 14.0 °F -3.0 °F 8.6 °F 79% 30.15 in 10.0 mi WSW 18.4 mph - N/A   Clear
7:55 AM 14.0 °F -2.5 °F 8.6 °F 79% 30.14 in 10.0 mi WSW 17.3 mph - N/A   Clear
8:15 AM 14.0 °F -3.4 °F 8.6 °F 79% 30.14 in 10.0 mi WSW 19.6 mph - N/A   Clear
8:35 AM 15.8 °F -0.6 °F 8.6 °F 73% 30.14 in 10.0 mi WSW 18.4 mph - N/A   Clear
8:55 AM 15.8 °F -0.6 °F 8.6 °F 73% 30.14 in 10.0 mi WSW 18.4 mph - N/A   Clear
9:35 AM 19.4 °F 5.5 °F 8.6 °F 63% 30.15 in 10.0 mi WSW 15.0 mph 23.0 mph N/A   Clear
9:55 AM 19.4 °F 5.5 °F 8.6 °F 63% 30.13 in 10.0 mi SW 15.0 mph - N/A   Clear
10:15 AM 19.4 °F 4.1 °F 8.6 °F 63% 30.12 in 10.0 mi SW 18.4 mph - N/A   Clear
10:35 AM 23.0 °F 9.2 °F 8.6 °F 54% 30.12 in 10.0 mi WSW 17.3 mph - N/A   Clear
10:55 AM 23.0 °F 8.7 °F 8.6 °F 54% 30.11 in 10.0 mi WSW 18.4 mph 24.2 mph N/A   Clear
11:15 AM 24.8 °F 12.4 °F 8.6 °F 50% 30.10 in 10.0 mi WSW 15.0 mph 23.0 mph N/A   Clear
11:35 AM 24.8 °F 12.4 °F 8.6 °F 50% 30.09 in 10.0 mi WSW 15.0 mph 19.6 mph N/A   Clear
11:55 AM 24.8 °F 11.9 °F 10.4 °F 54% 30.08 in 10.0 mi SW 16.1 mph 21.9 mph N/A   Clear
12:15 PM 26.6 °F 14.3 °F 10.4 °F 51% 30.08 in 10.0 mi WSW 16.1 mph 21.9 mph N/A   Clear
12:35 PM 26.6 °F 12.4 °F 10.4 °F 51% 30.06 in 10.0 mi WSW 21.9 mph 27.6 mph N/A   Clear
12:55 PM 26.6 °F 13.1 °F 10.4 °F 51% 30.05 in 10.0 mi WSW 19.6 mph 27.6 mph N/A   Clear
1:15 PM 26.6 °F 13.8 °F 10.4 °F 51% 30.05 in 10.0 mi WSW 17.3 mph 24.2 mph N/A   Clear
1:35 PM 26.6 °F 14.7 °F 10.4 °F 51% 30.04 in 10.0 mi WSW 15.0 mph 21.9 mph N/A   Clear
1:55 PM 28.4 °F 15.4 °F 10.4 °F 47% 30.04 in 10.0 mi WSW 19.6 mph 24.2 mph N/A   Clear
2:15 PM 26.6 °F 13.4 °F 10.4 °F 51% 30.04 in 10.0 mi WSW 18.4 mph 23.0 mph N/A   Clear
2:55 PM 26.6 °F 13.1 °F 10.4 °F 51% 30.04 in 10.0 mi WSW 19.6 mph - N/A   Clear
3:15 PM 26.6 °F 12.7 °F 12.2 °F 55% 30.04 in 10.0 mi WSW 20.7 mph - N/A   Clear
3:35 PM 26.6 °F 13.8 °F 12.2 °F 55% 30.05 in 10.0 mi WSW 17.3 mph - N/A   Clear
3:55 PM 24.8 °F 11.5 °F 10.4 °F 54% 30.05 in 10.0 mi WSW 17.3 mph 20.7 mph N/A   Clear
4:15 PM 24.8 °F 11.5 °F 10.4 °F 54% 30.04 in 10.0 mi WSW 17.3 mph - N/A   Clear
4:35 PM 24.8 °F 13.4 °F 10.4 °F 54% 30.05 in 10.0 mi WSW 12.7 mph - N/A   Clear
4:55 PM 24.8 °F 11.5 °F 10.4 °F 54% 30.04 in 10.0 mi WSW 17.3 mph 20.7 mph N/A   Clear
5:15 PM 24.8 °F 11.9 °F 10.4 °F 54% 30.04 in 10.0 mi WSW 16.1 mph 21.9 mph N/A   Clear
5:35 PM 24.8 °F 10.7 °F 10.4 °F 54% 30.04 in 10.0 mi WSW 19.6 mph - N/A   Clear
5:55 PM 24.8 °F 11.5 °F 10.4 °F 54% 30.05 in 10.0 mi West 17.3 mph - N/A   Clear
6:15 PM 23.0 °F 10.1 °F 10.4 °F 59% 30.05 in 10.0 mi WSW 15.0 mph - N/A   Clear
6:35 PM 23.0 °F 10.6 °F 10.4 °F 59% 30.05 in 10.0 mi WSW 13.8 mph - N/A   Clear
6:55 PM 21.2 °F 6.8 °F 10.4 °F 63% 30.05 in 10.0 mi WSW 17.3 mph - N/A   Clear
7:15 PM 21.2 °F 6.8 °F 8.6 °F 58% 30.05 in 10.0 mi WSW 17.3 mph - N/A   Clear
7:35 PM 23.0 °F 8.7 °F 10.4 °F 59% 30.05 in 10.0 mi WSW 18.4 mph - N/A   Clear
7:55 PM 21.2 °F 6.8 °F 8.6 °F 58% 30.05 in 10.0 mi WSW 17.3 mph - N/A   Clear
8:15 PM 21.2 °F 7.8 °F 8.6 °F 58% 30.05 in 10.0 mi West 15.0 mph 23.0 mph N/A   Clear
8:35 PM 19.4 °F 6.0 °F 8.6 °F 63% 30.05 in 10.0 mi West 13.8 mph - N/A   Clear
8:55 PM 21.2 °F 8.3 °F 8.6 °F 58% 30.05 in 10.0 mi WSW 13.8 mph - N/A   Clear
9:15 PM 19.4 °F 6.6 °F 10.4 °F 68% 30.06 in 10.0 mi West 12.7 mph - N/A   Clear
9:35 PM 19.4 °F 6.0 °F 10.4 °F 68% 30.06 in 10.0 mi WSW 13.8 mph - N/A   Clear
9:55 PM 19.4 °F 8.6 °F 8.6 °F 63% 30.06 in 10.0 mi WSW 9.2 mph - N/A   Clear
10:15 PM 19.4 °F 6.6 °F 8.6 °F 63% 30.06 in 10.0 mi WSW 12.7 mph - N/A   Clear
10:35 PM 19.4 °F 7.2 °F 8.6 °F 63% 30.06 in 10.0 mi West 11.5 mph - N/A   Clear
10:55 PM 19.4 °F 7.9 °F 8.6 °F 63% 30.06 in 10.0 mi WSW 10.4 mph - N/A   Clear
11:15 PM 19.4 °F 7.9 °F 8.6 °F 63% 30.07 in 10.0 mi WSW 10.4 mph - N/A   Clear
11:35 PM 17.6 °F 4.3 °F 8.6 °F 68% 30.06 in 10.0 mi WSW 12.7 mph - N/A   Clear
11:55 PM 17.6 °F 5.0 °F 8.6 °F 68% 30.06 in 10.0 mi WSW 11.5 mph - N/A   Clear